Weather in Novologinovo

Russia / Omsk Oblast     56°34′49″N   74°36′55″E
В апреле 2022 года жителям России запретили посещать сайт meteo.paraplan.net по решению Генеральной прокуратуры. Аудитория сайта уменьшилась в 10 раз. Владельцы сайта не видят смысла в поддержке погодного сервера в таких условиях. Сайт будет закрыт в октябре.
temp.,
°C
wind,
m/s
gust,
m/s
humid.,
%
clouds,
%
prec.,
mm/h
press.,
hPa
HPBL,
m
4 october, tue
tue400:00+1ssw487039 0.0 1034120
03:000ssw497378 0.0 1034147
06:000ssw41171100 0.0 1033206
09:00+3sw41160100 0.0 1033332
12:00+4ssw51261100 0.3 1032375
15:00+7sw61349100 0.0 1031609
18:00+7wsw61260100 0.2 1031551
21:00+6wsw41075100 0.9 1032362
5 october, wed
wed500:00+6w3776100 0.9 1031210
03:00+5wsw3583100 0.0 1031110
06:00+4w348970 0.0 103170
09:00+6w378651 0.0 1031177
12:00+12wnw576615 0.0 1031543
15:00+15wnw5854100 0.0 1030924
18:00+11wnw226916 0.0 103119
21:00+11wnw2271100 0.0 103126
6 october, thu
thu600:00+9w3472100 0.0 103181
03:00+8w3465100 0.0 103080
06:00+6w2264100 0.0 103023
09:00+7w256166 0.0 1030157
12:00+11w2343100 0.0 1029496
15:00+12wsw3337100 0.0 1028653
18:00+10sw2247100 0.0 102821
21:00+7sw2253100 0.0 102812
7 october, fri
fri700:00+7s3353100 0.0 102744
03:00+6s3353100 0.0 102744
06:00+6s3751100 0.0 1025120
09:00+7s4948100 0.0 1024217
12:00+12s5935100 0.0 1022441
15:00+14s5931100 0.0 1020630
18:00+11s4947100 0.0 1019159
21:00+8s41161100 0.0 1018180
8 october, sat
sat800:00+8s41067100 0.0 1016182
03:00+8s3871100 0.0 1013140
06:00+8s3870100 0.0 1011152
09:00+9ssw2569100 0.0 1009160
12:00+12sw2342100 0.0 1008363
15:00+13sw3431100 0.0 1006721
18:00+10w5764100 0.0 1007516
21:00+8wsw488276 0.0 1007432